Skip Page Navigation
NASA JPL Caltech
NASA Logo - Jet Propulsion Laboratory + View the NASA Portal
+ Center for Near-Earth Object Studies
JPL Home Earth Solar System Stars & Galaxies Technology
JPL Solar System Dynamics
BODIES ORBITS EPHEMERIDES TOOLS PHYSICAL DATA DISCOVERY FAQ SITE MAP
IMPORTANT: The SSD Announcement email list is now available. Major changes are coming in the near future, including possible hostname and/or URL changes. To be notified of such changes, subscribe to this email list.

Please visit this page for more details.


JPL Small-Body Database Browser
Search: [ help ]  
434967 (2006 UL101)
Classification: Main-belt Asteroid          SPK-ID: 2434967
Ephemeris | Orbit Diagram | Orbital Elements | Mission Design | Physical Parameters | Discovery Circumstances ]

[ show orbit diagram ]
Orbital Elements at Epoch 2458600.5 (2019-Apr-27.0) TDB
Reference: JPL 10 (heliocentric ecliptic J2000)
 Element Value Uncertainty (1-sigma)   Units 
e .09494876045881138 8.0643e-08  
a 2.217303187342295 1.7794e-08 au
q 2.006772998142772 1.8765e-07 au
i 5.644061763763962 7.9703e-06 deg
node 174.332768476833 5.4191e-05 deg
peri 209.0417418489416 6.3453e-05 deg
M 294.8409438522459 2.9827e-05 deg
tp 2458818.777179229249
(2019-Dec-01.27717923)
9.9402e-05 TDB
period 1205.96873509559
3.30
1.4517e-05
3.975e-08
d
yr
n .2985152015333674 3.5933e-09 deg/d
Q 2.427833376541817 1.9483e-08 au
  Orbit Determination Parameters
   # obs. used (total)      97  
   data-arc span      4767 days (13.05 yr)  
   first obs. used      2006-10-03  
   last obs. used      2019-10-22  
   planetary ephem.      DE431  
   SB-pert. ephem.      SB431-N16  
   condition code      0  
   norm. resid. RMS      .53253  
   source      ORB  
   producer      Otto Matic  
   solution date      2019-Nov-08 15:41:58  

Additional Information
 Earth MOID = 1.01046 au 
 Jupiter MOID = 2.93856 au 
 T_jup = 3.640 
[ show covariance matrix ]

Ephemeris | Orbit Diagram | Orbital Elements | Mission Design | Physical Parameters | Discovery Circumstances ]

Physical Parameter Table
Parameter Symbol Value Units Sigma Reference Notes
absolute magnitude H 18.4   n/a MPO446737  

434967 (2006 UL101)          Discovered 2006-Oct-03 by Mt. Lemmon Survey at Mount Lemmon
Reference: Last Updated: 2015-06-04
Ephemeris | Orbit Diagram | Orbital Elements | Mission Design | Physical Parameters | Discovery Circumstances ]
ABOUT SSD CREDITS/AWARDS PRIVACY/COPYRIGHT GLOSSARY LINKS
FirstGov
(server date/time)  
NASA Home Page
Site Manager:   Ryan S. Park
Webmaster  Alan B. Chamberlin